DECAYED

STARLINK-1062, 44767 (Decayed)

Orbit data source: Space-Track

STARLINK-1062, 44767 was a payload satellite owned by SpaceX/Seattle (US) in LEO that was launched on Mon, 11 Nov 2019 UTC via an FALCON 9 launch vehicle from the Air Force Eastern Test Range (AFETR). Payload-class satellites include a variety of spacecraft equipped with specific instruments for various scientific and technological missions. These include communications satellites like Starlink; space stations such as the ISS; scientific satellites like the Hubble; Earth observation satellites from companies like Planet Labs, Umbra, and HawkEye 360; GPS; miniature CubeSats for education and research; and military/defense satellites.

Not visible in the next 10 days
Identifier
44767, 2019-074BG
Orbit
Decayed
Country
Flag of USUS
Related business
Manufacturer
SpaceX/Seattle
Mission
Decayed Commercial Communications
Bus & Motor
STARLINK, Unknown motor
Mass
260 kg wet, ~248 kg dry
Launch date (UTC)
2019-11-11 (6 years ago)
Launch vehicle
FALCON 9
Launch site
Air Force Eastern Test Range (AFETR)
Object type
Payload
Rocket body
Debris
Shape & HBR
Box + 1 Pan, 10.1 m
Radar Cross Section
13.562 m², Large (>1 m²)

Expand to show TLE details & history
Last TLE update: 7 months ago

TLE from 7 months ago
0 STARLINK-1062
1 44767U 19074BG  25088.47902925  .18638896  12546-4  34241-3 0  9998
2 44767  53.0164 273.9060 0007595 264.4530 184.5478 16.47040245297206
Epoch: 2025-03-29T11:29Z
TLE epoch observation values (Epoch: 2025-03-29T11:29:48.127Z)
Latitude
53.16363°
Longitude
2.65835°
Altitude
158.548 km
Speed
7.815 km/s
True Right ascension
00h 08m 55s
True Declination
52° 58' 60"
Sunlit
Object was in daylight at epoch
Visualization orbit readout
Latitude
Unknown
Longitude
Unknown
Altitude
Unknown
Speed
Unknown
Apparent Right ascension
Unknown
Apparent Declination
Unknown
Sunlit
N/A
Visualization observer readout
Local Sidereal Time
14:20:31
Azimuth
Unknown
Elevation
Unknown
Doppler factor
Unknown
Orbital elements
Apogee altitude
152.391 km
Perigee altitude
142.478 km
Semi-major axis
6,525.572 km
Eccentricity
0.00076
Inclination
53.0164°
RAAN
273.906°
Arg. of periapsis
264.453°
True anomaly
184.54091°
Mean anomaly
184.5478°
Eccentric anomaly
184.54435°
Mean motion
4.11733 °/min
Orbital period
87.44 mins
BSTAR
0.00034241
Loading maneuver chart data...
Computing Atmospheric mass density...
Loading historical data...
Loading historical data...
Loading historical data...
Loading historical data...
Loading historical data...
Loading historical data...
Loading historical data...

Documentation

Showing up to 5 results
|